User: anonymous   Login
Location: Norwich
(52.6280°N, 1.3030°E)
Time: 14:32:56
(UTC+01:00)
Language:

APEX - Orbit

View from above orbital plane
View from above orbital plane
View from above satellite
View from above satellite

Ground track
Ground track

The orbit data is extracted from the following two-line orbital elements,

1 23191U 94046A   16271.96224161  .00010006  00000-0  33467-3 0  9990
2 23191  69.9250 105.1011 0625619 249.5179 103.7751 14.33366774 78917
Epoch (UTC): 27 September 2016 23:05:37
Eccentricity: 0.0625619
inclination: 69.9250°
perigee height: 332 km
apogee height: 1228 km
right ascension of ascending node: 105.1011°
argument of perigee: 249.5179°
revolutions per day: 14.33366774
mean anomaly at epoch: 103.7751°
orbit number at epoch: 7891

The dashed part of the orbit path shows where the satellite is in the earth's shadow,  

DLR